Location: Izdebno
(52.6670°N, 16.2170°E)
Time: 22:54:44
(UTC+02:00)

Vanguard 2 Rocket - Pass Details

Date: 25 February 2024
Orbit: 555 x 3307 km, 32.9° (Epoch: 21 April)

Event Time Altitude Azimuth Distance (km) Brightness Sun altitude
Rises 16:48:15 0° 248° (WSW) 5,027 13.9 4.5°
Reaches altitude 10° 16:51:31 10° 239° (WSW) 4,386 12.6 4.1°
Maximum altitude 17:02:32 34° 181° (S) 3,759 10.3 2.5°
Drops below altitude 10° 17:18:02 10° 127° (SE) 6,165 10.8 0.2°
Sets 17:23:47 0° 119° (ESE) 7,285 11.1 -0.6°
